Location: Ash Swamp
(41.5170°N, 74.6157°W)
Time: 17:05:13
(UTC+00:00)

SAR-Lupe-2 - Pass Details

Date: 14 July 2020
Orbit: 481 x 485 km, 98.1° (Epoch: 01 August)

Event Time Altitude Azimuth Distance (km) Brightness Sun altitude
Rises 02:11:29 0° 15° (NNE) 2,560 7.7 -15.2°
Reaches altitude 10° 02:13:34 10° 18° (NNE) 1,674 6.7 -15.5°
Maximum altitude 02:17:08 68° 102° (ESE) 527 3.5 -15.9°
Enters shadow 02:18:51 28° 178° (S) 923 4.5 -16.1°
